C/2002 B1 (LINEAR) 

Epoch 2002 May 6.0 TT = JDT 2452400.5  

T 2002 Apr. 20.01124 TT                                 Nakano

q   2.2711285            (2000.0)            P               Q

n   0.03157662     Peri.   76.16224     -0.39291163     -0.63975829

a   9.9134685      Node    58.18242     +0.18166506     -0.75816791

e   0.7709048      Incl.   51.02011     +0.90145341     -0.12605849

P  31.21 (+/- 0.07 day)

From 89 observations 2001 Nov. 8-2002 May 31, mean residual 0".59.

Residuals in seconds of arc 

2001/                     020201 704 (0.6-  2.0+)   020204 587  0.1-  0.4-  

011108 704  0.1+  0.3-    020201 704  1.6-  0.8+    020206 341  0.1-  0.1+  

011108 704  0.2+  0.9+    020201 118  1.5-  0.0     020206 341  0.6+  0.4+  

011108 704  0.1+  0.4+    020201 118  1.3-  0.0     020206 402  0.4+  0.4+  

011108 704  0.3+  0.4-    020201 118  0.3+  0.4+    020206 402  0.4+  0.5+  

2002/                     020201 118  0.7+  0.1-    020206 402  0.0   0.7+  

020126 704  0.1-  0.3+    020201 118  0.4+  0.1-    020209 170  0.6-  0.1+  

020126 704  0.8-  0.3+    020201 046  0.3+  0.4-    020209 170  1.4+  0.6+  

020126 704  0.2-  0.5+    020201 046  0.3+  0.4-    020215 360  0.2-  0.3+  

020126 704  0.6-  0.2+    020201 046  0.3+  0.5-    020215 360  0.0   0.1+  

020126 704  1.5-  1.1+    020201 046  0.7+  0.9-    020216 118  0.0   0.5+  

020129 461  0.4+  0.2-    020201 046  0.5+  1.2-    020216 118  0.1-  0.5+  

020129 461  0.1-  0.1+    020202 118  0.5+  0.7-    020216 118  0.0   0.3+  

020129 461  0.1+  0.1+    020202 118  0.7+  1.1-    020309 367  0.8-  0.7-  

020129 461  0.1-  0.2+    020202 118  1.0+  0.6-    020309 367  0.0   0.0   

020129 118  0.3+  0.1+    020202 118  1.1-  0.7+    020309 367  0.0   0.7+  

020129 118  0.5+  0.0     020202 118  0.9-  0.9+    020311 118  0.8+  1.0-  

020129 118  0.7+  0.2-    020202 118  0.8-  0.5+    020311 118  0.0   1.1-  

020129 046  0.7-  0.0     020203 670  0.0   0.3-    020311 118  0.4+  1.3-  

020129 046  0.4-  0.3-    020203 670  0.1+  0.3-    020311 215  0.5+  0.4-  

020129 046  0.4-  0.9-    020204 046 (2.0+  1.6-)   020311 215  0.3+  0.6-  

020129 046  1.2-  1.0-    020204 046  1.2+  1.3-    020311 204  0.3-  0.5+  

020130 966  0.1-  0.4-    020204 046  0.8+  0.4-    020311 204  0.0   0.6+  

020130 966  0.3-  0.1-    020204 046  0.0   0.4-    020311 204  0.5+  0.8+  

020131 201  0.1+  0.4+    020204 118  0.1-  0.3-    020311 204  0.3+  0.7+  

020131 201  0.3+  0.2+    020204 118  0.4+  0.1-    020315 921 (2.2-  1.1+) 

020131 201  0.1+  0.4+    020204 106  0.5+  0.3-    020315 921  0.3+  1.5+  

020131 966  0.5-  0.6+    020204 106  0.4+  0.0     020315 921 (5.7-  2.7+) 

020131 966  0.5-  0.3-    020204 118  0.0   0.0     020410 921  0.9-  0.4-  

020131 966  0.1+  0.3-    020204 106  0.0   0.2-    020531 215  0.4+  0.3+  

020201 704  1.6+  0.3-    020204 118  0.2-  0.1+    020531 215  0.5+  0.4+  

020201 704  0.7-  0.9+    020204 587  0.2+  0.0     



NAKANO

         **** Don't distribute anyone except personal use only ****

                (C) Copyright 2002 OAA/ComputingSection

write mail from CFAD0::NAKANO on 2002-06-24 23:03:41(JST).

 

    C/2002 B1 (LINEAR) 

Epoch 2002 May 6.0 TT = JDT 2452400.5  

T 2002 Apr. 19.97843 TT                                 Nakano

q   2.2714489            (2000.0)            P               Q

n   0.03158602     Peri.   76.14320     -0.39267567     -0.63985534

a   9.9115008      Node    58.18424     +0.18186765     -0.75813545

e   0.7708269      Incl.   51.02368     +0.90151538     -0.12576081

P  31.20

From 74 observations 2001 Nov. 8-2002 Feb. 16, mean residual 0".60.



NAKANO

         **** Don't distribute anyone except personal use only ****

                (C) Copyright 2002 OAA/ComputingSection

write mail from CFAD0::NAKANO on 2002-02-25 23:29:25(JST).

 



◎C/2002 B1の軌道と予報位置です



 2月6日に17.9等(341),18.7等(402),7日に18.3等(360)と

観測されています.



    C/2002 B1 (LINEAR) 

Epoch 2002 May 6.0 TT = JDT 2452400.5  

T 2002 Apr. 20.00826 TT                                 Nakano

q   2.2710402            (2000.0)            P               Q

n   0.03160937     Peri.   76.16321     -0.39293714     -0.63978334

a   9.9066188      Node    58.18058     +0.18169365     -0.75814478

e   0.7707553      Incl.   51.01729     +0.90143653     -0.12607049

P  31.18

From 69 observations 2001 Nov. 8-2002 Feb. 9, mean residual 0".60.

 

Date/        TT  R.A.(2000) Decl.     Delta   r     Daily motion  Mag.  Moon Age

              h    h  m       。  ,                      ,  / PA 。  m1      。

2002 Feb. 10 12  03 02.90  +65 12.3   1.998  2.372     3.3 /  48  17.8  115  .03

          11 12  03 03.29  +65 14.4   2.005  2.369     3.7 /  52  17.8  108  .01

          12 12  03 03.75  +65 16.7   2.012  2.366     4.1 /  55  17.8  100  .00

          13 12  03 04.28  +65 19.1   2.020  2.363     4.5 /  57  17.8   92  .01

          14 12  03 04.89  +65 21.6   2.027  2.361     4.9 /  59  17.8   84  .04

          15 12  03 05.57  +65 24.1   2.034  2.358     5.4 /  60  17.8   76  .09

          16 12  03 06.31  +65 26.8   2.041  2.355     5.8 /  61  17.8   69  .15

          17 12  03 07.13  +65 29.6   2.048  2.353     6.2 /  62  17.8   62  .22

          18 12  03 08.01  +65 32.5   2.055  2.350     6.6 /  63  17.8   56  .31

          19 12  03 08.97  +65 35.5   2.062  2.348     7.1 /  64  17.8   51  .40

          20 12  03 09.99  +65 38.6   2.068  2.345     7.5 /  64  17.8   48  .50

          21 12  03 11.08  +65 41.8   2.075  2.343     7.9 /  65  17.8   47  .60

          22 12  03 12.24  +65 45.1   2.082  2.340     8.3 /  65  17.8   49  .70

          23 12  03 13.46  +65 48.5   2.089  2.338     8.7 /  66  17.8   53  .80

          24 12  03 14.76  +65 52.1   2.096  2.335     9.1 /  66  17.8   60  .88

          25 12  03 16.12  +65 55.7   2.103  2.333     9.5 /  67  17.8   68  .95

          26 12  03 17.54  +65 59.4   2.110  2.331     9.9 /  67  17.8   78  .99

          27 12  03 19.03  +66 03.2   2.116  2.329    10.2 /  68  17.8   88 1.00

          28 12  03 20.59  +66 07.1   2.123  2.326    10.6 /  68  17.8   98  .98

     Mar.  1 12  03 22.22  +66 11.0   2.130  2.324    11.0 /  68  17.8  108  .93

           2 12  03 23.91  +66 15.1   2.136  2.322    11.4 /  69  17.8  117  .86

           3 12  03 25.67  +66 19.2   2.143  2.320    11.8 /  69  17.8  125  .77

           4 12  03 27.49  +66 23.4   2.150  2.318    12.1 /  69  17.8  130  .67

           5 12  03 29.38  +66 27.7   2.156  2.316    12.5 /  69  17.8  133  .56

           6 12  03 31.34  +66 32.0   2.163  2.314    12.8 /  70  17.8  133  .45

           7 12  03 33.37  +66 36.4   2.169  2.312    13.2 /  70  17.8  131  .35

           8 12  03 35.46  +66 40.8   2.176  2.311    13.6 /  70  17.8  126  .26

           9 12  03 37.62  +66 45.3   2.182  2.309    13.9 /  71  17.8  120  .18

          10 12  03 39.84  +66 49.9   2.188  2.307    14.3 /  71  17.8  114  .11

NAKANO

         **** Don't distribute anyone except personal use only ****

                (C) Copyright 2002 OAA/ComputingSection

write mail from CFAD0::NAKANO on 2002-02-12 04:13:43(JST).

 

戻ります。